Total_Precipitation_Accumulation
0.09 0.17 0.20 0.22 0.20 0.18 0.14 0.12 0.18 0.26 0.41 0.56 0.68 0.91 0.77 0.73 0.80 0.86 0.73 0.64 0.52 0.54 0.63 0.73 0.79 0.79 0.85 0.94 1.02 1.16 1.17 1.13 1.16 1.22 1.22 1.26 1.29 1.30 1.33 1.40 1.42 1.59 1.62 1.69
0.11 0.14 0.14 0.16 0.18 0.16 0.12 0.10 0.10 0.20 0.42 0.62 0.71 0.78 0.74 0.60 0.62 0.81 0.72 0.61 0.59 0.65 0.73 0.73 0.72 0.72 0.75 0.76 0.87 1.05 1.15 1.25 1.31 1.30 1.21 1.25 1.25 1.24 1.29 1.40 1.49 1.58 1.63 1.73
0.21 0.17 0.19 0.26 0.21 0.18 0.15 0.13 0.14 0.26 0.42 0.59 0.72 0.65 0.70 0.63 0.57 0.59 0.58 0.54 0.62 0.69 0.73 0.73 0.72 0.69 0.69 0.69 0.81 1.08 1.18 1.20 1.35 1.43 1.34 1.39 1.41 1.40 1.41 1.45 1.57 1.64 1.77 1.82
0.28 0.31 0.38 0.30 0.25 0.23 0.26 0.27 0.25 0.28 0.40 0.62 0.80 0.72 0.66 0.68 0.67 0.60 0.48 0.52 0.61 0.63 0.64 0.67 0.70 0.71 0.71 0.73 0.79 1.03 1.20 1.28 1.50 1.65 1.56 1.57 1.57 1.60 1.65 1.70 1.74 1.85 1.87 1.76
0.42 0.44 0.47 0.40 0.37 0.38 0.47 0.57 0.48 0.49 0.62 0.68 0.66 0.68 0.74 0.70 0.65 0.59 0.57 0.61 0.64 0.68 0.70 0.76 0.83 0.86 0.86 0.94 1.05 1.19 1.32 1.45 1.67 1.88 1.93 1.89 1.83 1.91 1.96 1.96 1.96 2.02 2.04 1.98
0.58 0.64 0.73 0.68 0.55 0.50 0.64 1.03 0.84 0.68 0.71 0.72 0.72 0.90 0.92 0.68 0.59 0.56 0.59 0.67 0.78 0.89 0.89 0.92 0.99 0.99 1.02 1.14 1.34 1.47 1.50 1.53 1.66 1.86 1.94 1.92 1.90 2.06 2.19 2.19 2.14 2.17 2.07 1.93
0.65 0.75 0.76 0.68 0.60 0.64 1.13 1.50 1.07 0.92 0.93 0.97 0.96 0.92 0.80 0.73 0.73 0.65 0.62 0.70 0.76 0.79 0.91 1.01 1.11 1.18 1.29 1.35 1.43 1.47 1.49 1.51 1.60 1.84 2.13 2.07 2.08 2.15 2.26 2.30 2.32 2.34 2.25 2.13
0.77 1.01 1.14 0.74 0.65 1.02 1.38 1.26 1.29 1.26 1.23 1.18 1.03 0.85 0.74 0.73 0.78 0.70 0.67 0.75 0.75 0.74 0.86 1.03 1.22 1.40 1.45 1.43 1.47 1.56 1.57 1.57 1.66 1.89 2.00 2.04 2.17 2.22 2.33 2.43 2.42 2.38 2.37 2.23
1.03 1.25 1.15 0.91 0.98 1.03 1.11 1.23 1.29 1.22 1.23 1.20 1.14 1.01 0.90 0.86 0.82 0.79 0.85 0.84 0.85 0.86 0.93 1.05 1.21 1.42 1.56 1.58 1.58 1.55 1.51 1.49 1.58 1.73 1.81 1.95 2.04 1.97 2.03 2.15 2.14 2.18 2.20 2.16
1.43 1.43 1.26 1.10 1.00 1.01 0.99 1.06 1.06 1.02 0.97 0.96 0.96 0.93 0.91 0.92 0.95 0.97 1.03 1.00 0.99 1.02 1.03 1.08 1.18 1.36 1.51 1.51 1.53 1.53 1.45 1.41 1.52 1.72 1.82 1.89 1.94 1.92 1.98 2.05 2.10 2.17 2.19 2.12
1.79 1.76 1.54 1.44 1.25 1.20 1.07 1.04 1.04 0.98 0.94 0.89 0.80 0.80 0.81 0.78 0.81 0.88 0.98 1.01 1.01 1.04 1.06 1.05 1.12 1.32 1.46 1.47 1.51 1.57 1.54 1.50 1.58 1.69 1.78 1.90 1.94 1.99 2.01 2.02 1.99 1.99 1.98 1.91
1.93 1.76 1.62 1.62 1.32 1.27 1.32 1.20 1.08 1.07 1.03 0.94 0.81 0.76 0.77 0.74 0.75 0.79 0.88 1.01 1.05 1.11 1.09 1.06 1.11 1.25 1.38 1.53 1.68 1.72 1.65 1.60 1.56 1.54 1.62 1.69 1.74 1.71 1.65 1.60 1.58 1.52 1.50 1.41
1.30 1.37 1.45 1.58 1.43 1.26 1.25 1.19 1.12 1.10 1.06 0.97 0.88 0.81 0.71 0.65 0.71 0.78 0.88 0.99 1.11 1.19 1.14 1.11 1.16 1.25 1.34 1.47 1.65 1.75 1.70 1.57 1.47 1.40 1.39 1.41 1.51 1.59 1.63 1.53 1.43 1.32 1.26 1.14
1.29 1.40 1.50 1.47 1.50 1.46 1.28 1.19 1.11 1.06 1.02 0.94 0.88 0.83 0.76 0.74 0.74 0.84 0.97 1.05 1.06 1.08 1.10 1.09 1.11 1.18 1.28 1.44 1.63 1.70 1.66 1.55 1.39 1.31 1.30 1.27 1.33 1.42 1.48 1.51 1.47 1.29 1.13 1.02
1.50 1.43 1.42 1.36 1.36 1.45 1.42 1.37 1.25 1.15 1.03 0.99 0.95 0.93 0.88 0.82 0.81 0.86 0.95 1.11 1.23 1.24 1.15 1.13 1.15 1.17 1.22 1.37 1.50 1.60 1.61 1.51 1.38 1.33 1.32 1.21 1.13 1.17 1.22 1.26 1.34 1.28 1.12 1.05
1.41 1.32 1.30 1.35 1.40 1.36 1.30 1.34 1.31 1.19 0.98 0.93 0.96 0.95 0.89 0.86 0.88 0.94 1.01 1.15 1.43 1.57 1.45 1.29 1.20 1.16 1.20 1.32 1.39 1.36 1.34 1.30 1.25 1.25 1.24 1.18 1.14 1.15 1.22 1.29 1.35 1.31 1.18 1.07
1.23 1.16 1.14 1.19 1.25 1.30 1.26 1.19 1.14 1.08 0.98 0.93 0.92 0.90 0.88 0.91 1.00 1.15 1.23 1.29 1.35 1.36 1.37 1.37 1.29 1.20 1.24 1.33 1.39 1.29 1.15 1.09 1.04 1.04 1.06 1.06 1.07 1.15 1.26 1.33 1.35 1.25 1.08 0.95
0.94 0.94 0.98 1.00 1.02 1.14 1.16 1.04 0.95 0.93 0.92 0.95 0.92 0.92 0.94 0.99 1.20 1.42 1.45 1.40 1.37 1.25 1.16 1.18 1.20 1.20 1.28 1.33 1.38 1.36 1.20 1.06 0.95 0.93 0.97 0.99 1.06 1.16 1.23 1.21 1.14 1.07 0.98 0.90
0.73 0.77 0.82 0.86 0.89 0.91 0.95 0.94 0.96 0.91 0.86 0.88 0.95 1.00 1.05 1.09 1.27 1.50 1.57 1.59 1.57 1.39 1.13 1.01 1.05 1.07 1.16 1.23 1.32 1.29 1.09 0.90 0.76 0.72 0.76 0.86 1.00 1.16 1.19 1.10 0.99 0.93 0.91 0.87
0.70 0.68 0.69 0.71 0.73 0.76 0.79 0.80 0.82 0.85 0.81 0.86 0.95 1.00 1.10 1.18 1.34 1.54 1.63 1.68 1.56 1.35 1.13 0.95 0.88 0.88 0.94 1.09 1.20 1.17 1.02 0.84 0.70 0.64 0.66 0.75 0.91 1.10 1.10 0.99 0.93 0.94 0.93 0.92
0.69 0.67 0.66 0.67 0.71 0.69 0.70 0.72 0.76 0.81 0.84 0.87 0.99 1.12 1.19 1.19 1.31 1.55 1.77 1.77 1.46 1.14 0.96 0.94 0.84 0.77 0.82 0.99 1.03 0.94 0.88 0.82 0.71 0.69 0.73 0.85 1.01 1.09 1.01 0.91 0.85 0.84 0.83 0.88
0.74 0.71 0.66 0.66 0.72 0.73 0.73 0.78 0.83 0.86 0.91 0.91 0.97 1.09 1.16 1.27 1.28 1.29 1.39 1.56 1.42 1.19 0.91 0.78 0.76 0.79 0.85 0.95 0.91 0.84 0.81 0.79 0.75 0.73 0.81 0.95 1.03 1.02 0.92 0.87 0.92 0.87 0.82 0.85
0.78 0.74 0.70 0.66 0.71 0.77 0.76 0.78 0.81 0.89 1.01 1.01 0.99 1.02 1.14 1.26 1.25 1.31 1.26 1.15 1.16 1.12 0.91 0.76 0.72 0.77 0.84 0.87 0.85 0.80 0.81 0.79 0.74 0.74 0.79 0.89 0.94 0.95 0.93 0.93 0.95 0.92 0.92 0.90
0.78 0.76 0.75 0.73 0.73 0.80 0.84 0.80 0.79 0.85 0.95 0.90 0.86 0.85 1.00 1.14 1.08 1.02 1.09 1.15 1.10 1.06 0.92 0.85 0.78 0.74 0.77 0.75 0.77 0.81 0.85 0.80 0.74 0.70 0.71 0.77 0.84 0.91 0.99 1.02 1.01 0.96 0.92 0.89
0.78 0.77 0.75 0.78 0.85 0.92 0.90 0.87 0.91 0.94 0.98 0.92 0.83 0.78 0.83 1.01 1.08 0.96 0.96 1.01 1.02 0.97 0.88 0.86 0.84 0.87 0.85 0.84 0.83 0.82 0.78 0.69 0.64 0.63 0.67 0.78 0.83 0.88 0.94 0.94 0.90 0.89 0.89 0.90
0.89 0.84 0.80 0.82 0.86 0.90 0.93 1.04 1.15 1.15 1.19 1.14 0.96 0.79 0.77 0.83 0.87 0.92 0.96 0.96 0.98 0.99 0.86 0.80 0.79 0.84 0.88 0.93 0.90 0.80 0.70 0.66 0.65 0.67 0.72 0.79 0.83 0.88 0.91 0.91 0.86 0.88 0.89 0.89
0.86 0.83 0.81 0.82 0.84 0.84 0.86 0.97 1.08 1.18 1.31 1.32 1.09 0.81 0.74 0.78 0.85 0.91 0.96 1.02 1.06 1.06 0.97 0.85 0.78 0.80 0.84 0.87 0.88 0.82 0.75 0.68 0.68 0.70 0.72 0.72 0.75 0.85 0.93 0.96 0.89 0.88 0.90 0.88